[TLELIST] Archives

 

[list_settings.list_name] Current TLEs

May 27th 2021 PST

HST 1 20580U 90037B 21146.64171260 .00000476 00000-0 17845-4 0 9991 2 20580 28.4690 209.4024 0002609 182.4663 310.1312 15.09647299507751 ISS (ZARYA) 1 25544U 98067A 21147.20911310 .00000674 00000-0 20446-4 0 9999 2 25544 51.6428 86.4815 0003280 38.6349 112.4099 15.48927771285345 CXO 1 25867U 99040B 21149.59523372 .00000554 00000-0 00000-0 0 9997 2 25867 55.5081 255.9677 8293353 226.3943 359.7278 0.37807024 10369 ____________________________________________________________________ These 2-Line ...Continue Reading

[list_settings.list_name] Current TLEs

May 26th 2021 PST

HST 1 20580U 90037B 21146.22748500 .00000523 00000-0 20677-4 0 9992 2 20580 28.4690 212.1432 0002631 177.9646 218.9555 15.09647302507894 ISS (ZARYA) 1 25544U 98067A 21146.36913980 .00001085 00000-0 27924-4 0 9995 2 25544 51.6428 90.6360 0003215 35.8494 108.3067 15.48928009285215 CXO 1 25867U 99040B 21146.95371728 .00000576 00000-0 00000-0 0 9994 2 25867 55.5808 256.0654 8287362 226.4158 0.0595 0.37800582 10365 ____________________________________________________________________ These 2-Line ...Continue Reading

[list_settings.list_name] Current TLEs

May 25th 2021 PST

HST 1 20580U 90037B 21144.92844425 .00000551 00000-0 22359-4 0 9990 2 20580 28.4691 220.7387 0002678 164.0941 358.8951 15.09646483507494 ISS (ZARYA) 1 25544U 98067A 21145.40166954 .00001214 00000-0 30271-4 0 9993 2 25544 51.6426 95.4218 0003210 31.9756 113.8776 15.48925795285061 CXO 1 25867U 99040B 21146.95371728 .00000576 00000-0 00000-0 0 9994 2 25867 55.5808 256.0654 8287362 226.4158 0.0595 0.37800582 10365 ____________________________________________________________________ These 2-Line ...Continue Reading

[list_settings.list_name] Current TLEs

May 24th 2021 PST

HST 1 20580U 90037B 21143.93680124 .00000575 00000-0 23805-4 0 9997 2 20580 28.4692 227.3003 0002717 153.6863 9.3097 15.09645778507343 ISS (ZARYA) 1 25544U 98067A 21144.23167620 .00102477 00000-0 18465-2 0 9996 2 25544 51.6424 101.2130 0002848 30.0669 67.4570 15.48960510284886 CXO 1 25867U 99040B 21144.30864911 .00000689 00000-0 00000-0 0 9997 2 25867 55.6498 256.1702 8285594 226.4345 359.9014 0.37811191 10347 ____________________________________________________________________ These 2-Line ...Continue Reading

[list_settings.list_name] Current TLEs

May 23rd 2021 PST

HST 1 20580U 90037B 21142.94531856 .00000559 00000-0 22826-4 0 9998 2 20580 28.4694 233.8607 0002753 143.3885 20.4908 15.09644880507402 ISS (ZARYA) 1 25544U 98067A 21143.40149609 .00018167 00000-0 33793-3 0 9995 2 25544 51.6410 105.3197 0003184 19.9866 125.2985 15.48931543284751 CXO 1 25867U 99040B 21144.30864911 .00000689 00000-0 00000-0 0 9997 2 25867 55.6498 256.1702 8285594 226.4345 359.9014 0.37811191 10347 ____________________________________________________________________ These 2-Line ...Continue Reading

[list_settings.list_name] Current TLEs

May 22nd 2021 PST

HST 1 20580U 90037B 21141.68015622 .00000561 00000-0 22971-4 0 9990 2 20580 28.4695 242.2320 0002801 130.3955 344.0487 15.09643809507000 ISS (ZARYA) 1 25544U 98067A 21141.97474461 -.00000450 00000-0 00000+0 0 9990 2 25544 51.6422 112.3779 0003628 13.3545 90.9576 15.48906521284531 CXO 1 25867U 99040B 21144.30864911 .00000689 00000-0 00000-0 0 9997 2 25867 55.6498 256.1702 8285594 226.4345 359.9014 0.37811191 10347 ____________________________________________________________________ These 2-Line ...Continue Reading

[list_settings.list_name] Current TLEs

May 21st 2021 PST

HST 1 20580U 90037B 21140.69422488 .00000593 00000-0 24931-4 0 9995 2 20580 28.4696 248.7554 0002832 120.6490 24.9140 15.09643058506859 ISS (ZARYA) 1 25544U 98067A 21141.46601005 .00020261 00000-0 37585-3 0 9993 2 25544 51.6432 114.8910 0003179 14.4805 131.2297 15.48930794284457 CXO 1 25867U 99040B 21141.66268120 .00000834 00000-0 00000-0 0 9995 2 25867 55.7558 256.3334 8284936 226.3930 359.7354 0.37813119 10332 ____________________________________________________________________ These 2-Line ...Continue Reading

[list_settings.list_name] Current TLEs

May 20th 2021 PST

HST 1 20580U 90037B 21139.76556103 .00000604 00000-0 25600-4 0 9990 2 20580 28.4697 254.9000 0002844 111.4005 17.1347 15.09642290506713 ISS (ZARYA) 1 25544U 98067A 21140.23141564 .00001480 00000-0 35000-4 0 9999 2 25544 51.6437 120.9949 0003227 21.1871 75.5686 15.49025569284261 CXO 1 25867U 99040B 21141.66268120 .00000834 00000-0 00000-0 0 9995 2 25867 55.7558 256.3334 8284936 226.3930 359.7354 0.37813119 10332 ____________________________________________________________________ These 2-Line ...Continue Reading

[list_settings.list_name] Current TLEs

May 19th 2021 PST

HST 1 20580U 90037B 21138.77336396 .00000588 00000-0 24596-4 0 9994 2 20580 28.4698 261.4649 0002855 101.5825 23.9581 15.09641260506562 ISS (ZARYA) 1 25544U 98067A 21139.30500730 .00001470 00000-0 34810-4 0 9996 2 25544 51.6434 125.5774 0003226 18.4478 308.7946 15.49021808284112 CXO 1 25867U 99040B 21141.66268122 .00000834 00000-0 00000-0 0 9997 2 25867 55.7558 256.3334 8284942 226.3929 359.7355 0.37813092 10338 ____________________________________________________________________ These 2-Line ...Continue Reading

[list_settings.list_name] Current TLEs

May 18th 2021 PST

HST 1 20580U 90037B 21136.72697560 .00000561 00000-0 23009-4 0 9999 2 20580 28.4700 275.0048 0002861 81.1938 60.7791 15.09639176506256 ISS (ZARYA) 1 25544U 98067A 21138.49799818 .00001435 00000-0 34181-4 0 9994 2 25544 51.6434 129.5692 0003126 15.7735 128.2370 15.49018856283990 CXO 1 25867U 99040B 21139.01841356 .00000875 00000-0 00000-0 0 9994 2 25867 55.8404 256.4682 8281108 226.3496 359.8597 0.37807566 10323 ____________________________________________________________________ These 2-Line ...Continue Reading
  • This mailing list is a public mailing list - anyone may join or leave, at any time.
  • This mailing list is announce-only.

International Space Station (ISS) / Hubble Space Telescope (HST) / Chandra X-Ray Observatory Orbital Data via EMAIL

Privacy Policy:

Private list